Location: La Plant
(45.1447°N, 100.6515°W)
Time: 04:53:38
(UTC+00:00)

ISS - Pass Details

Date: 27 November 2020
Orbit: 418 x 419 km, 51.6° (Epoch: 18 January)

Event Time Altitude Azimuth Distance (km) Brightness Sun altitude
Rises 00:44:47 0° 273° (W) 2,365 1.5 -17.3°
Reaches altitude 10° 00:47:02 10° 284° (WNW) 1,501 0.0 -17.7°
Maximum altitude 00:50:04 30° 348° (NNW) 775 -2.5 -18.2°
Enters shadow 00:50:34 29° 6° (N) 803 -2.5 -18.3°
